Vorticity
2 2 7 4 7 3 2 1 -0 8 2 3 11 8 4 2 9 7 16 3 4 3 14 8 9 16 15 14 8 5 5 6 7 7 8 8 9 8 8 7 5 1 -0 4 5 7 7
5 7 6 4 7 3 1 4 12 -1 5 4 7 -1 3 2 -2 10 6 10 8 6 13 8 7 18 19 17 13 7 3 7 7 4 1 1 -0 0 2 3 2 2 2 4 4 -0 4
8 1 -7 -0 1 5 -0 10 3 5 -1 10 11 12 14 0 6 9 8 7 4 8 14 6 14 12 12 18 13 12 3 4 5 2 -0 2 1 6 6 5 4 6 4 5 6 5 6
5 5 6 1 6 10 1 -1 12 6 16 20 17 18 18 14 13 9 10 8 9 11 4 6 7 8 14 13 13 16 13 10 6 4 6 8 8 6 7 6 4 4 4 4 1 2 2
10 7 8 -1 3 5 -4 5 5 12 9 1 2 6 15 17 13 7 9 7 7 12 4 5 9 12 15 12 11 14 15 10 8 8 5 6 6 3 5 6 7 7 6 6 3 9 5
-2 0 1 -1 6 -0 -4 1 22 2 7 2 4 6 10 16 14 10 12 6 7 16 8 9 13 16 12 11 11 11 10 12 11 7 6 4 1 3 3 4 3 4 4 6 6 7 8
7 -4 -4 -9 -1 3 13 30 -1 5 7 3 8 4 7 13 13 13 6 7 7 17 14 7 6 10 9 11 10 8 8 6 4 5 2 4 1 5 3 4 3 5 6 7 6 4 4
-7 -10 4 4 14 8 4 8 3 3 3 3 4 4 7 7 11 7 3 7 8 9 13 10 11 12 9 7 7 9 7 6 6 4 4 3 3 1 0 2 6 9 9 9 5 6 4
-8 -0 9 11 14 8 3 1 5 3 -3 7 5 8 5 7 9 8 1 11 8 8 12 15 12 6 2 4 4 2 3 6 5 6 6 5 6 9 10 5 0 6 7 7 4 5 17
19 4 15 10 10 6 8 5 3 2 3 9 3 3 11 11 12 9 7 10 10 7 11 12 7 10 7 8 -8 5 4 -4 4 4 2 -0 4 3 4 0 8 12 13 7 11 16 -15
7 3 4 6 2 8 5 5 4 -0 0 7 11 -2 4 8 9 16 10 11 10 11 4 7 15 6 -5 -7 4 12 -2 5 -4 -3 17 9 5 2 -0 12 4 21 15 12 17 9 6
5 1 7 5 1 6 1 2 17 3 13 -8 6 7 7 -3 2 10 13 9 9 9 11 -1 2 1 -1 -3 3 2 0 12 -1 -3 1 4 5 -1 -0 5 23 6 15 7 8 14 -7
15 2 7 7 -1 3 1 1 12 -13 13 7 -2 10 -0 10 -1 9 8 9 9 5 13 13 4 -5 2 4 -5 3 8 6 5 1 6 5 6 15 -2 13 10 9 13 11 10 11 28
4 -0 19 7 6 -2 4 20 -14 1 23 7 20 2 15 14 7 4 10 6 5 10 4 -1 4 6 3 3 12 8 4 6 6 -6 -2 5 4 3 10 11 14 10 11 11 6 7 -10
15 7 4 8 13 10 10 11 7 11 25 15 1 2 6 11 8 4 5 5 5 8 5 -3 1 4 3 3 11 11 10 8 7 6 -4 6 11 14 8 16 11 6 13 6 10 9 11
11 9 -3 10 13 6 -13 4 -6 24 10 -9 16 12 12 7 8 9 -0 3 3 1 5 5 4 5 4 7 14 11 6 8 16 12 2 2 9 13 6 14 11 11 8 9 11 9 6
12 8 5 -6 -7 14 11 -4 19 23 -2 7 20 -8 17 10 20 6 2 3 9 -1 -4 5 8 8 8 7 4 3 13 10 -0 3 4 4 17 13 14 15 14 10 9 8 6 8 4
7 -2 11 -9 13 4 4 28 13 26 3 8 6 6 7 11 15 19 10 7 17 1 11 6 2 5 4 9 12 5 5 3 4 8 11 16 13 12 10 12 4 4 7 15 24 16 -1
1 -1 -3 5 9 10 6 12 6 -5 10 10 -15 1 -4 8 2 5 -10 2 7 19 10 2 9 20 13 9 9 10 3 0 11 17 16 15 10 13 6 20 22 8 -2 -1 12 17 10
3 10 5 6 11 -6 18 18 5 10 -2 -4 7 5 8 -1 37 -4 -5 2 21 4 13 24 8 -2 5 9 6 6 13 18 17 14 9 6 7 7 8 11 -3 3 9 15 17 10 19
-23 42 -13 2 -3 8 3 2 12 12 -2 13 -9 -1 2 6 24 -12 12 18 2 6 8 14 4 6 5 7 10 17 15 10 9 6 7 9 8 3 -3 6 13 10 10 15 10 11 5
33 -18 -5 -1 -5 1 13 6 5 33 -5 -10 -7 5 18 26 8 11 0 -2 14 8 10 5 10 6 7 12 15 11 6 7 6 8 2 3 8 14 5 12 13 8 10 13 14 26 58
-1 0 9 9 2 12 10 30 43 12 -16 10 14 8 5 10 18 8 14 9 15 8 10 9 9 12 10 7 8 8 8 4 2 5 9 14 23 22 18 12 10 11 44 40 44 29 8
9 10 1 -1 6 15 -13 28 6 29 27 31 18 11 21 8 9 -8 -0 17 8 9 8 8 8 8 8 12 7 5 3 5 6 10 13 13 12 11 16 21 18 64 17 6 8 10 13
16 3 7 9 -3 6 25 20 4 17 15 22 -2 -2 10 21 19 5 12 17 12 4 7 11 8 8 4 3 7 9 12 16 13 8 10 10 15 16 10 25 40 8 8 19 17 38 13
6 15 7 11 12 -11 2 0 4 9 14 20 16 14 13 4 7 18 12 9 6 5 4 5 8 4 3 7 14 18 24 25 12 15 29 41 42 30 41 14 4 6 9 11 10 18 35
16 22 14 25 16 10 28 3 3 8 17 1 3 16 17 18 14 6 3 5 4 2 6 7 12 17 14 16 13 15 16 18 9 20 24 21 11 11 5 14 6 7 27 51 13 -8 26
17 5 1 16 -14 -30 5 16 12 1 11 30 20 16 7 12 15 7 5 8 7 6 11 9 22 15 18 13 15 23 20 25 19 19 20 21 17 9 19 14 26 7 32 21 11 -14 2
-5 19 12 -13 23 18 18 18 32 22 7 5 6 6 4 5 8 9 7 8 9 14 11 18 13 23 17 24 17 33 27 12 18 18 26 14 15 12 21 23 23 4 27 0 25 3 -4
Height
5835 5835 5837 5838 5839 5837 5837 5836 5836 5835 5831 5830 5829 5826 5825 5822 5820 5819 5815 5813 5813 5810 5808 5806 5805 5804 5802 5801 5800 5801 5802 5803 5804 5804 5805 5805 5805 5804 5805 5804 5803 5802 5803 5802 5801 5799 5797
5828 5828 5830 5831 5832 5830 5830 5829 5829 5828 5826 5824 5822 5820 5818 5815 5813 5812 5809 5807 5806 5804 5802 5799 5800 5799 5796 5795 5795 5795 5796 5798 5798 5799 5800 5800 5800 5799 5800 5798 5796 5794 5793 5791 5791 5788 5788
5821 5821 5823 5824 5824 5823 5823 5823 5822 5821 5820 5817 5815 5812 5810 5807 5805 5804 5802 5801 5800 5798 5796 5794 5794 5793 5791 5790 5789 5788 5789 5791 5792 5793 5793 5793 5793 5792 5792 5791 5787 5787 5782 5782 5782 5778 5775
5813 5814 5816 5817 5817 5816 5816 5816 5815 5813 5812 5810 5807 5805 5801 5798 5797 5796 5795 5794 5793 5792 5791 5787 5788 5787 5785 5782 5782 5782 5783 5784 5785 5786 5787 5786 5785 5784 5785 5783 5778 5779 5774 5773 5774 5770 5768
5806 5807 5808 5810 5809 5809 5810 5810 5808 5807 5805 5803 5801 5798 5794 5790 5790 5788 5788 5786 5786 5786 5785 5780 5781 5780 5780 5777 5776 5776 5777 5778 5779 5779 5779 5778 5776 5777 5778 5775 5771 5772 5766 5764 5763 5762 5757
5797 5799 5799 5800 5801 5801 5802 5804 5801 5801 5799 5797 5795 5791 5788 5784 5783 5781 5781 5779 5780 5780 5779 5774 5775 5775 5774 5773 5771 5771 5771 5772 5773 5772 5770 5770 5767 5769 5769 5765 5762 5760 5757 5756 5753 5751 5745
5787 5789 5791 5793 5794 5794 5795 5796 5795 5794 5792 5789 5787 5784 5782 5779 5777 5775 5776 5773 5772 5776 5773 5769 5770 5769 5766 5768 5767 5765 5765 5766 5766 5766 5764 5759 5760 5762 5757 5755 5752 5749 5747 5745 5744 5739 5734
5776 5779 5783 5784 5785 5786 5787 5789 5788 5787 5786 5783 5780 5778 5775 5773 5773 5769 5767 5766 5764 5767 5774 5764 5765 5763 5762 5762 5761 5761 5760 5760 5759 5758 5756 5756 5751 5750 5749 5745 5742 5739 5735 5732 5730 5727 5720
5767 5770 5773 5774 5776 5777 5779 5780 5780 5780 5779 5776 5774 5772 5769 5766 5766 5763 5762 5759 5757 5757 5760 5763 5759 5758 5758 5758 5756 5757 5757 5754 5753 5750 5748 5746 5748 5739 5738 5736 5732 5727 5723 5719 5715 5713 5713
5757 5761 5763 5766 5768 5769 5771 5772 5773 5771 5771 5769 5767 5765 5763 5760 5761 5756 5755 5752 5751 5750 5750 5755 5755 5754 5753 5752 5752 5750 5749 5749 5746 5743 5740 5738 5733 5730 5727 5723 5719 5714 5709 5702 5698 5697 5698
5747 5751 5754 5756 5759 5761 5763 5763 5763 5762 5762 5761 5759 5757 5755 5752 5753 5750 5746 5744 5745 5742 5742 5746 5748 5747 5747 5746 5743 5740 5743 5739 5735 5733 5729 5727 5722 5716 5714 5710 5705 5701 5693 5689 5688 5682 5683
5738 5741 5745 5747 5749 5752 5753 5753 5753 5753 5753 5752 5750 5748 5747 5747 5744 5742 5740 5738 5737 5736 5732 5737 5737 5737 5736 5735 5734 5733 5732 5725 5723 5721 5719 5715 5709 5705 5699 5694 5692 5685 5679 5675 5674 5668 5663
5727 5732 5735 5737 5739 5742 5744 5744 5743 5743 5743 5741 5740 5739 5738 5738 5737 5734 5731 5730 5728 5726 5729 5726 5726 5725 5722 5721 5719 5718 5716 5714 5709 5705 5704 5698 5694 5686 5680 5676 5673 5670 5667 5660 5658 5656 5649
5717 5721 5724 5727 5729 5731 5733 5733 5733 5732 5731 5730 5729 5729 5729 5729 5727 5725 5724 5722 5716 5718 5720 5718 5716 5713 5710 5708 5708 5705 5703 5699 5694 5695 5690 5686 5682 5676 5670 5666 5660 5656 5655 5650 5639 5642 5641
5706 5710 5713 5716 5718 5720 5722 5723 5723 5722 5720 5721 5720 5718 5718 5719 5717 5715 5714 5708 5709 5710 5710 5707 5705 5701 5699 5694 5695 5692 5690 5687 5683 5682 5677 5673 5667 5662 5657 5651 5649 5642 5641 5634 5626 5623 5618
5695 5700 5703 5706 5708 5711 5712 5713 5713 5712 5712 5711 5709 5708 5707 5707 5706 5703 5701 5698 5698 5700 5698 5694 5692 5688 5684 5679 5678 5675 5672 5671 5670 5666 5661 5658 5653 5646 5637 5639 5632 5630 5624 5620 5613 5603 5598
5684 5689 5692 5694 5696 5699 5702 5702 5702 5702 5702 5701 5698 5696 5696 5696 5693 5690 5687 5688 5687 5687 5687 5684 5680 5675 5671 5668 5666 5662 5658 5658 5657 5654 5646 5641 5639 5637 5626 5622 5621 5613 5606 5604 5597 5591 5580
5673 5679 5682 5683 5686 5689 5691 5691 5692 5692 5691 5687 5687 5684 5685 5683 5681 5678 5678 5678 5678 5676 5673 5669 5666 5662 5658 5655 5651 5647 5643 5641 5641 5635 5630 5626 5619 5621 5617 5611 5605 5599 5592 5588 5581 5576 5571
5663 5668 5670 5672 5675 5679 5680 5680 5680 5681 5678 5677 5674 5672 5671 5669 5667 5667 5666 5665 5662 5660 5658 5653 5650 5648 5645 5641 5636 5632 5627 5627 5621 5617 5613 5609 5603 5603 5611 5591 5588 5581 5577 5574 5562 5554 5550
5650 5655 5660 5664 5666 5666 5667 5669 5671 5670 5667 5667 5662 5660 5658 5655 5654 5654 5653 5650 5647 5644 5642 5639 5636 5633 5629 5626 5621 5615 5609 5608 5605 5599 5597 5591 5590 5587 5590 5586 5571 5568 5562 5556 5548 5539 5534
5637 5641 5647 5650 5653 5653 5653 5656 5658 5658 5656 5652 5650 5647 5646 5642 5642 5640 5638 5633 5631 5629 5627 5624 5621 5619 5614 5608 5604 5600 5594 5588 5587 5581 5579 5574 5573 5570 5571 5564 5558 5551 5547 5541 5532 5525 5515
5624 5629 5632 5637 5640 5641 5642 5642 5644 5643 5641 5639 5638 5636 5632 5630 5628 5625 5621 5620 5617 5614 5612 5609 5605 5601 5596 5593 5588 5585 5579 5573 5569 5563 5561 5556 5553 5548 5555 5544 5538 5533 5528 5524 5519 5511 5502
5612 5617 5620 5623 5626 5628 5628 5628 5630 5629 5627 5625 5624 5622 5620 5616 5614 5611 5610 5606 5603 5599 5596 5591 5588 5584 5580 5577 5572 5568 5563 5557 5553 5549 5542 5536 5531 5526 5528 5526 5518 5515 5515 5506 5503 5501 5496
5601 5607 5611 5613 5614 5615 5616 5616 5616 5615 5613 5613 5612 5609 5607 5604 5601 5599 5595 5590 5586 5583 5580 5576 5572 5566 5563 5559 5554 5551 5547 5542 5536 5532 5523 5519 5514 5509 5505 5505 5499 5504 5503 5493 5491 5490 5487
5591 5596 5597 5600 5600 5603 5604 5604 5604 5603 5603 5602 5599 5598 5594 5590 5588 5585 5580 5577 5572 5568 5562 5559 5555 5550 5547 5542 5538 5533 5530 5521 5520 5515 5511 5504 5500 5495 5490 5489 5490 5492 5491 5484 5480 5484 5481
5577 5581 5583 5587 5589 5591 5592 5591 5590 5589 5589 5588 5586 5583 5580 5576 5573 5570 5565 5562 5556 5552 5549 5544 5541 5535 5528 5522 5517 5514 5509 5505 5499 5494 5493 5487 5481 5481 5482 5480 5480 5484 5483 5473 5476 5476 5476
5568 5570 5572 5574 5577 5578 5578 5579 5579 5577 5575 5573 5571 5569 5566 5561 5559 5554 5550 5546 5540 5534 5529 5526 5522 5513 5507 5502 5501 5498 5493 5490 5484 5481 5481 5481 5476 5472 5471 5470 5470 5472 5464 5470 5471 5474 5470
5557 5560 5561 5562 5562 5564 5567 5564 5564 5563 5561 5559 5556 5553 5551 5546 5544 5538 5533 5527 5522 5514 5508 5504 5500 5495 5489 5487 5484 5485 5477 5475 5470 5467 5465 5466 5465 5462 5460 5458 5458 5460 5463 5464 5465 5465 5464
5546 5547 5550 5551 5550 5552 5550 5550 5549 5549 5547 5544 5543 5538 5535 5531 5528 5522 5515 5508 5502 5497 5490 5487 5483 5479 5475 5473 5469 5466 5468 5463 5459 5455 5454 5453 5452 5448 5449 5449 5452 5456 5457 5459 5458 5459 5459